Weather History for KMGN - March, 2013

Change the Weather History Date:

Tuesday, March 5, 2013

  Actual Average (KPLN) Record (KPLN)
Temperature  
Mean Temperature 17 °F -  
Max Temperature 28 °F 32 °F 47 °F (1965)
Min Temperature 6 °F 13 °F -20 °F (2015)
Degree Days  
Heating Degree Days 48    
Moisture  
Dew Point 14 °F    
Average Humidity 79    
Maximum Humidity 89    
Minimum Humidity 72    
Precipitation  
Precipitation 0.00 in - - ()
Sea Level Pressure  
Sea Level Pressure 30.08 in    
Wind  
Wind Speed 6 mph (ENE)    
Max Wind Speed 16 mph    
Max Gust Speed 24 mph    
Visibility 10 miles    
Events      
Averages and records for this station are not official NWS values.
T = Trace of Precipitation, MM = Missing Value Source: NWS Daily Summary

Daily Weather History Graph

Daily Weather History Graph

Search for Another Location

Airport or City:

Trip Planner

Search our weather history database for the weather conditions in past years. The results will help you decide how hot, cold, wet, or windy it might be!

Date:

Astronomy

Mar. 05, 2013 Rise Set
Actual Time 7:10 AM EST 6:32 PM EST
Civil Twilight 6:40 AM EST 7:02 PM EST
Nautical Twilight 6:06 AM EST 7:36 PM EST
Astronomical Twilight 5:32 AM EST 8:10 PM EST
Moon 2:34 AM EST (3/5) 11:58 AM EST (3/5)
Length of Visible Light 12h 21m
Length of Day
11h 22m
Last Quarter, 41% of the Moon is Illuminated
Mar 5
Last Quarter
Mar 11
New
Mar 19
First Quarter
Mar 27
Full
Apr 3
Last Quarter

Hourly Weather History & Observations

Time (EST) Temp. Windchill Dew Point Humidity Pressure Visibility Wind Dir Wind Speed Gust Speed Precip Events Conditions
12:14 AM 12.9 °F - 6.8 °F 77% 30.14 in 10.0 mi Calm Calm - N/A   Clear
12:35 AM 12.9 °F - 7.2 °F 78% 30.14 in 10.0 mi Calm Calm - N/A   Clear
12:54 AM 11.1 °F - 5.9 °F 80% 30.14 in 10.0 mi Calm Calm - N/A   Clear
1:34 AM 12.9 °F - 7.7 °F 80% 30.15 in 10.0 mi Calm Calm - N/A   Clear
1:54 AM 9.5 °F 3.0 °F 4.6 °F 81% 30.15 in 10.0 mi NE 3.5 mph - N/A   Clear
2:15 AM 9.7 °F 1.4 °F 5.4 °F 83% 30.14 in 10.0 mi NNE 4.6 mph - N/A   Clear
2:34 AM 9.9 °F 1.6 °F 5.4 °F 82% 30.14 in 10.0 mi NE 4.6 mph - N/A   Clear
2:54 AM 10.4 °F 4.0 °F 6.3 °F 83% 30.15 in 10.0 mi NE 3.5 mph - N/A   Clear
3:15 AM 10.0 °F 3.6 °F 5.9 °F 83% 30.15 in 10.0 mi NE 3.5 mph - N/A   Clear
3:34 AM 7.9 °F -0.7 °F 4.3 °F 85% 30.14 in 10.0 mi NE 4.6 mph - N/A   Clear
3:54 AM 8.1 °F - 4.3 °F 85% 30.15 in 10.0 mi Calm Calm - N/A   Clear
4:15 AM 8.1 °F -0.5 °F 4.6 °F 86% 30.14 in 10.0 mi NE 4.6 mph - N/A   Clear
4:34 AM 7.7 °F 1.0 °F 4.6 °F 87% 30.14 in 10.0 mi NE 3.5 mph - N/A   Clear
4:54 AM 7.7 °F -0.9 °F 4.3 °F 86% 30.14 in 10.0 mi NE 4.6 mph - N/A   Clear
5:15 AM 6.4 °F -5.2 °F 2.8 °F 85% 30.13 in 10.0 mi NE 6.9 mph - N/A   Clear
5:34 AM 8.1 °F -0.5 °F 5.0 °F 87% 30.13 in 10.0 mi NE 4.6 mph - N/A   Clear
5:54 AM 7.7 °F -3.7 °F 5.0 °F 89% 30.12 in 10.0 mi ENE 6.9 mph - N/A   Clear
6:15 AM 7.7 °F -3.7 °F 5.0 °F 89% 30.12 in 10.0 mi ENE 6.9 mph - N/A   Clear
6:34 AM 7.2 °F -3.0 °F 4.1 °F 87% 30.12 in 10.0 mi ENE 5.8 mph - N/A   Clear
7:34 AM 7.7 °F -2.4 °F 5.0 °F 89% 30.12 in 10.0 mi ENE 5.8 mph - N/A   Clear
7:54 AM 7.7 °F -3.7 °F 5.0 °F 89% 30.12 in 10.0 mi ENE 6.9 mph - N/A   Clear
8:15 AM 10.4 °F 2.2 °F 7.7 °F 89% 30.12 in 10.0 mi East 4.6 mph - N/A   Clear
8:34 AM 12.9 °F 6.9 °F 9.5 °F 86% 30.12 in 10.0 mi East 3.5 mph - N/A   Clear
8:54 AM 14.9 °F 7.5 °F 10.8 °F 84% 30.13 in 10.0 mi ENE 4.6 mph - N/A   Clear
9:15 AM 15.6 °F 4.0 °F 11.3 °F 83% 30.11 in 10.0 mi ENE 9.2 mph - N/A   Scattered Clouds
9:34 AM 18.0 °F 7.7 °F 13.5 °F 83% 30.11 in 10.0 mi ENE 8.1 mph - N/A   Mostly Cloudy
9:54 AM 19.9 °F 8.6 °F 14.9 °F 81% 30.11 in 10.0 mi East 10.4 mph - N/A   Overcast
10:14 AM 21.6 °F 9.9 °F 15.8 °F 78% 30.11 in 10.0 mi East 11.5 mph - N/A   Overcast
10:34 AM 23.0 °F 11.1 °F 16.7 °F 77% 30.09 in 10.0 mi East 12.7 mph 18.4 mph N/A   Overcast
10:54 AM 23.0 °F 9.6 °F 16.7 °F 77% 30.09 in 10.0 mi ENE 16.1 mph 21.9 mph N/A   Overcast
11:14 AM 23.0 °F 11.1 °F 17.1 °F 78% 30.08 in 10.0 mi East 12.7 mph 19.6 mph N/A   Overcast
11:34 AM 23.7 °F 10.5 °F 17.2 °F 76% 30.08 in 10.0 mi ENE 16.1 mph - N/A   Overcast
11:55 AM 25.2 °F 15.7 °F 18.7 °F 76% 30.08 in 10.0 mi East 9.2 mph - N/A   Overcast
12:14 PM 25.5 °F 14.3 °F 19.2 °F 77% 30.07 in 10.0 mi East 12.7 mph - N/A   Overcast
12:35 PM 27.5 °F 15.9 °F 20.3 °F 74% 30.07 in 10.0 mi ENE 15.0 mph - N/A   Overcast
12:54 PM 27.9 °F 18.4 °F 20.7 °F 74% 30.05 in 10.0 mi ENE 10.4 mph 17.3 mph N/A   Mostly Cloudy
1:14 PM 28.0 °F 18.6 °F 20.8 °F 74% 30.05 in 10.0 mi ENE 10.4 mph 19.6 mph N/A   Overcast
1:35 PM 28.0 °F 18.6 °F 20.5 °F 73% 30.05 in 10.0 mi ENE 10.4 mph 17.3 mph N/A   Overcast
1:54 PM 28.0 °F 17.5 °F 20.5 °F 73% 30.05 in 10.0 mi ENE 12.7 mph 18.4 mph N/A   Overcast
2:15 PM 28.0 °F 18.1 °F 20.3 °F 73% 30.04 in 10.0 mi ENE 11.5 mph 17.3 mph N/A   Mostly Cloudy
2:34 PM 28.0 °F 17.5 °F 19.9 °F 72% 30.03 in 10.0 mi NE 12.7 mph - N/A   Mostly Cloudy
2:55 PM 28.0 °F 18.1 °F 20.1 °F 72% 30.03 in 10.0 mi NE 11.5 mph 20.7 mph N/A   Scattered Clouds
3:14 PM 28.0 °F 16.5 °F 20.3 °F 73% 30.02 in 10.0 mi NE 15.0 mph 19.6 mph N/A   Scattered Clouds
3:35 PM 28.0 °F 18.6 °F 20.5 °F 73% 30.02 in 10.0 mi NE 10.4 mph 18.4 mph N/A   Mostly Cloudy
3:54 PM 28.0 °F 16.5 °F 20.3 °F 73% 30.02 in 10.0 mi NE 15.0 mph 18.4 mph N/A   Overcast
4:14 PM 28.0 °F 17.5 °F 21.2 °F 76% 30.02 in 10.0 mi ENE 12.7 mph 24.2 mph N/A   Overcast
4:35 PM 26.1 °F 14.0 °F 20.1 °F 78% 30.02 in 10.0 mi NE 15.0 mph - N/A   Overcast
4:54 PM 25.5 °F 14.3 °F 19.8 °F 79% 30.03 in 10.0 mi ENE 12.7 mph 21.9 mph N/A   Overcast
5:14 PM 25.5 °F 14.3 °F 19.9 °F 79% 30.03 in 10.0 mi NE 12.7 mph 17.3 mph N/A   Overcast
5:35 PM 24.1 °F 12.0 °F 18.7 °F 80% 30.03 in 10.0 mi East 13.8 mph - N/A   Overcast
5:54 PM 23.2 °F 12.0 °F 17.4 °F 79% 30.03 in 10.0 mi ENE 11.5 mph - N/A   Scattered Clouds
6:14 PM 23.0 °F 11.7 °F 17.2 °F 79% 30.03 in 10.0 mi ENE 11.5 mph 16.1 mph N/A   Mostly Cloudy
6:35 PM 24.4 °F 14.2 °F 18.1 °F 77% 30.03 in 10.0 mi ENE 10.4 mph - N/A   Overcast
6:54 PM 24.4 °F 14.2 °F 18.0 °F 76% 30.03 in 10.0 mi ENE 10.4 mph - N/A   Overcast
7:14 PM 24.8 °F 14.6 °F 18.0 °F 75% 30.03 in 10.0 mi ENE 10.4 mph - N/A   Overcast
7:35 PM 25.5 °F 15.5 °F 18.5 °F 75% 30.03 in 10.0 mi ENE 10.4 mph - N/A   Overcast
7:54 PM 25.5 °F 15.5 °F 18.5 °F 75% 30.03 in 10.0 mi ENE 10.4 mph - N/A   Overcast
8:14 PM 25.5 °F 17.8 °F 18.9 °F 76% 30.04 in 10.0 mi ENE 6.9 mph - N/A   Overcast
8:34 PM 25.5 °F 17.8 °F 18.7 °F 75% 30.05 in 10.0 mi ENE 6.9 mph - N/A   Overcast
8:54 PM 25.5 °F 16.9 °F 18.7 °F 75% 30.05 in 10.0 mi ENE 8.1 mph - N/A   Overcast
9:14 PM 26.1 °F 19.4 °F 19.2 °F 75% 30.06 in 10.0 mi NE 5.8 mph - N/A   Overcast
9:34 PM 26.1 °F 16.8 °F 18.9 °F 74% 30.06 in 10.0 mi ENE 9.2 mph - N/A   Overcast
9:54 PM 26.1 °F 18.4 °F 19.2 °F 75% 30.07 in 10.0 mi ENE 6.9 mph - N/A   Overcast
10:14 PM 26.6 °F 20.0 °F 19.8 °F 75% 30.06 in 10.0 mi NE 5.8 mph - N/A   Overcast
10:34 PM 28.0 °F 21.7 °F 21.0 °F 75% 30.06 in 10.0 mi NE 5.8 mph - N/A   Overcast
10:54 PM 28.0 °F 22.8 °F 21.2 °F 76% 30.06 in 10.0 mi ENE 4.6 mph - N/A   Overcast
11:15 PM 28.0 °F 21.7 °F 20.8 °F 74% 30.06 in 10.0 mi NE 5.8 mph - N/A   Overcast
11:34 PM 28.0 °F 20.0 °F 21.0 °F 75% 30.06 in 10.0 mi NE 8.1 mph - N/A   Overcast
11:54 PM 28.2 °F 18.9 °F 21.2 °F 75% 30.06 in 10.0 mi NE 10.4 mph - N/A   Overcast